DW6352 Weather Reports


Display with metric or nautical units.
time (UTC)temp
F
wind
direction
speed
MPH
gust
MPH
rain 1hr
in
rain 24hr
in
rain mn
in
humidity
%
barometer
mb
20260505163009 43 260 10.0 22.0 0.00 0.00 0.00 47 1010.2
20260505161502 43 320 9.0 21.0 0.00 0.00 0.00 49 1010.2
20260505153056 41 332 13.0 19.0 0.00 0.00 0.00 53 1010.0
20260505151611 40 298 9.0 21.0 0.00 0.00 0.00 52 1010.0
20260505124532 36 288 8.0 17.0 0.00 0.00 0.00 54 1008.7
20260505123028 36 289 9.0 15.0 0.00 0.00 0.00 56 1008.5
20260505121528 35 291 9.0 15.0 0.00 0.00 0.00 58 1008.4
20260505120048 34 288 9.0 14.0 0.00 0.00 0.00 60 1008.1
20260505114515 34 315 8.0 14.0 0.00 0.00 0.00 62 1007.8
20260505113013 34 295 7.0 15.0 0.00 0.00 0.00 64 1007.7
20260505111509 34 284 7.0 15.0 0.00 0.00 0.00 65 1007.6
20260505101600 35 277 5.0 12.0 0.00 0.00 0.00 66 1006.9
20260505100057 35 288 7.0 10.0 0.00 0.00 0.00 66 1007.0
20260505094554 35 288 5.0 12.0 0.00 0.00 0.00 66 1006.9
20260505093054 36 293 6.0 14.0 0.00 0.00 0.00 66 1006.8
20260505091548 36 302 7.0 16.0 0.00 0.00 0.00 66 1006.6
20260505090050 37 312 7.0 14.0 0.00 0.00 0.00 66 1006.4
20260505084544 37 303 8.0 14.0 0.00 0.00 0.00 65 1006.2
20260505083041 37 270 9.0 14.0 0.00 0.00 0.00 65 1006.0
20260505081540 37 296 6.0 13.0 0.00 0.00 0.00 65 1005.8
20260505080038 38 267 6.0 12.0 0.00 0.00 0.00 64 1005.8
20260505074533 38 283 6.0 12.0 0.00 0.00 0.00 64 1005.7
20260505073046 38 304 6.0 12.0 0.00 0.00 0.00 63 1005.7
20260505071530 38 288 5.0 14.0 0.00 0.00 0.00 62 1005.6
20260505070028 39 312 5.0 15.0 0.00 0.00 0.00 61 1005.5
20260505064537 39 315 4.0 10.0 0.00 0.00 0.00 60 1005.5
20260505063023 39 244 3.0 9.0 0.00 0.00 0.00 60 1005.3
20260505061530 40 238 4.0 10.0 0.00 0.00 0.00 58 1005.3
20260505060017 40 336 5.0 11.0 0.00 0.00 0.00 58 1005.2
20260505054514 41 280 6.0 12.0 0.00 0.00 0.00 57 1005.1
20260505053011 41 236 5.0 12.0 0.00 0.00 0.00 56 1004.8
20260505051509 42 247 5.0 11.0 0.00 0.00 0.00 55 1004.7
20260505041601 43 302 4.0 11.0 0.00 0.00 0.00 52 1004.6
20260505040057 43 259 5.0 9.0 0.00 0.00 0.00 52 1004.6
20260505034555 44 234 4.0 11.0 0.00 0.00 0.00 51 1004.6
20260505033053 44 268 4.0 12.0 0.00 0.00 0.00 51 1004.4
20260505031606 44 261 3.0 10.0 0.00 0.00 0.00 50 1004.5
20260505030050 44 298 5.0 11.0 0.00 0.00 0.00 50 1004.4
20260505024547 44 290 2.0 7.0 0.00 0.00 0.00 49 1004.3
20260505023051 44 225 4.0 11.0 0.00 0.00 0.00 48 1004.1
20260505021542 45 279 3.0 10.0 0.00 0.00 0.00 48 1003.9
20260505020040 45 298 2.0 7.0 0.00 0.00 0.00 47 1003.7
20260505014539 45 275 4.0 9.0 0.00 0.00 0.00 46 1003.4
20260505013036 46 309 5.0 11.0 0.00 0.00 0.00 45 1003.4
20260505011535 46 277 6.0 16.0 0.00 0.00 0.00 44 1003.2
20260505010032 47 300 7.0 15.0 0.00 0.00 0.00 44 1002.9
20260505004630 47 303 9.0 24.0 0.00 0.00 0.00 42 1002.8
20260505003027 48 301 12.0 24.0 0.00 0.00 0.00 44 1002.8
20260505001525 48 238 14.0 24.0 0.00 0.00 0.00 44 1002.6
20260505000035 48 297 13.0 24.0 0.00 0.00 0.00 44 1002.4
20260504234519 49 310 12.0 21.0 0.00 0.00 0.00 42 1002.1
20260504233016 50 294 14.0 28.0 0.00 0.00 0.00 40 1002.0
20260504231513 50 313 14.0 28.0 0.00 0.00 0.00 38 1001.7
20260504230012 50 306 12.0 24.0 0.00 0.00 0.00 39 1001.6
20260504224510 51 297 14.0 27.0 0.00 0.00 0.00 37 1001.4
20260504223007 52 300 18.0 28.0 0.00 0.00 0.00 37 1001.2
20260504221508 52 308 15.0 28.0 0.00 0.00 0.00 37 1000.9
20260504220001 52 302 11.0 29.0 0.00 0.00 0.00 41 1000.6
20260504214600 53 293 16.0 29.0 0.00 0.00 0.00 37 1000.4
20260504213102 54 306 10.0 27.0 0.00 0.00 0.00 39 1000.2
20260504211553 53 286 16.0 26.0 0.00 0.00 0.00 38 1000.0
20260504210055 54 259 9.0 25.0 0.00 0.00 0.00 41 1000.0
20260504204555 53 315 11.0 28.0 0.00 0.00 0.00 40 999.9
20260504203101 55 311 18.0 29.0 0.00 0.00 0.00 39 999.9
20260504201550 55 279 11.0 22.0 0.00 0.00 0.00 42 999.8
20260504200048 54 308 12.0 32.0 0.00 0.00 0.00 40 999.6
20260504194548 55 293 14.0 34.0 0.00 0.00 0.00 41 999.2
20260504193045 55 284 15.0 25.0 0.00 0.00 0.00 44 999.0
20260504191543 57 299 13.0 26.0 0.00 0.00 0.00 41 998.7
20260504190042 56 259 13.0 26.0 0.00 0.00 0.00 42 998.5
20260504184541 55 275 11.0 27.0 0.00 0.00 0.00 42 998.5
20260504183039 55 334 12.0 25.0 0.00 0.00 0.00 43 998.2
20260504181538 55 306 13.0 24.0 0.00 0.00 0.00 44 997.9
20260504180037 55 292 14.0 28.0 0.00 0.00 0.00 45 997.9
20260504174536 56 286 14.0 25.0 0.00 0.00 0.00 46 997.4
20260504173037 57 310 7.0 22.0 0.00 0.00 0.00 48 997.2
20260504171534 57 307 13.0 26.0 0.00 0.00 0.00 46 997.0